Weather History for KMTP - January, 2013

Change the Weather History Date:

Monday, January 21, 2013

  Actual Average (KHTO) Record (KHTO)
Temperature  
Mean Temperature 29 °F -  
Max Temperature 30 °F 36 °F 33 °F (2015)
Min Temperature 28 °F 20 °F 30 °F (2015)
Degree Days  
Heating Degree Days 36    
Moisture  
Dew Point 17 °F    
Average Humidity 61    
Maximum Humidity 88    
Minimum Humidity 41    
Precipitation  
Precipitation 0.12 in - - ()
Sea Level Pressure  
Sea Level Pressure 29.99 in    
Wind  
Wind Speed 8 mph (NW)    
Max Wind Speed 14 mph    
Max Gust Speed 21 mph    
Averages and records for this station are not official NWS values.
T = Trace of Precipitation, MM = Missing Value Source: NWS Daily Summary

Daily Weather History Graph

Daily Weather History Graph

Search for Another Location

Airport or City:

Trip Planner

Search our weather history database for the weather conditions in past years. The results will help you decide how hot, cold, wet, or windy it might be!

Date:

Astronomy

Jan. 21, 2013 Rise Set
Actual Time 7:07 AM EST 4:51 PM EST
Civil Twilight 6:37 AM EST 5:21 PM EST
Nautical Twilight 6:03 AM EST 5:54 PM EST
Astronomical Twilight 5:31 AM EST 6:27 PM EST
Moon 12:29 PM EST (1/21) 2:32 AM EST (1/21)
Length of Visible Light 10h 43m
Length of Day
9h 44m
Waxing Gibbous, 75% of the Moon is Illuminated
Jan 21
Waxing Gibbous
Jan 26
Full
Feb 3
Last Quarter
Feb 10
New
Feb 17
First Quarter

Hourly Weather History & Observations

Time (EST) Temp. Windchill Dew Point Humidity Pressure Visibility Wind Dir Wind Speed Gust Speed Precip Events Conditions
1:54 AM 30.9 °F 20.7 °F 10.0 °F 42% 30.03 in - WNW 13.8 mph 20.7 mph N/A   Unknown
2:54 AM 30.0 °F 20.5 °F 9.0 °F 41% 30.04 in - WNW 11.5 mph 20.7 mph N/A   Unknown
3:54 AM 30.0 °F 21.1 °F 9.0 °F 41% 30.06 in - WNW 10.4 mph 19.6 mph N/A   Unknown
4:54 AM 28.9 °F 20.4 °F 8.1 °F 41% 30.07 in - WNW 9.2 mph 18.4 mph N/A   Unknown
5:54 AM 28.9 °F 23.9 °F 10.0 °F 45% 30.07 in - NW 4.6 mph - N/A   Unknown
6:54 AM 28.0 °F 22.8 °F 10.9 °F 49% 30.10 in - NNW 4.6 mph - N/A   Unknown
7:54 AM 28.0 °F 24.2 °F 10.9 °F 49% 30.11 in - NNW 3.5 mph - N/A   Unknown
8:54 AM 28.0 °F 22.8 °F 12.9 °F 53% 30.11 in - Variable 4.6 mph - N/A   Unknown
11:54 AM 30.0 °F 25.2 °F 15.1 °F 54% 30.06 in - NW 4.6 mph - N/A   Unknown
12:54 PM 30.0 °F 24.1 °F 15.1 °F 54% 30.02 in - NNE 5.8 mph - N/A   Unknown
1:54 PM 30.9 °F 27.5 °F 14.0 °F 50% 30.00 in - South 3.5 mph - N/A   Unknown
2:54 PM 30.0 °F 26.5 °F 19.0 °F 64% 29.99 in - Variable 3.5 mph - N/A   Unknown
3:54 PM 30.0 °F 25.2 °F 23.0 °F 75% 29.95 in - Variable 4.6 mph - N/A   Unknown
4:54 PM 30.0 °F - 25.0 °F 82% 29.93 in - Calm Calm - 0.01 in   Unknown
6:54 PM 30.9 °F 26.2 °F 27.0 °F 85% 29.90 in - Variable 4.6 mph - 0.03 in   Unknown
7:54 PM 30.0 °F 24.1 °F 27.0 °F 88% 29.89 in - West 5.8 mph - 0.02 in   Unknown
8:54 PM 30.9 °F 22.2 °F 27.0 °F 85% 29.85 in - NW 10.4 mph - 0.02 in   Unknown
10:54 PM 30.0 °F 20.0 °F 26.1 °F 85% 29.82 in - WNW 12.7 mph - 0.04 in   Unknown
11:54 PM 28.0 °F 18.1 °F 24.1 °F 85% 29.81 in - NW 11.5 mph - N/A   Unknown